International Skating Union - Official Site

ISU World Single Distances Championships 2016
February 11-14, 2016

Draw | Lap Times | Index | World Cup

Referee: Daniel  CABELDUC  (SWE)
Starter: Jyrki  JÄÄSKELÄINEN  (FIN)
StartTime: EndTime: Air Temp: Ice Temp: Humidity:
19:30 20:03 14.5 ℃ -6.2 ℃ 39%
Result Team Pursuit Ladies
Rankings as of Feb 14 2016 10:39PM
Rank: No.: Team: Nation: Time: Behind: Points:
Total 8
1 10 Netherlands (248) Antoinette de Jong (254) Marrit Leenstra (259) Ireen Wüst (251) Marije Joling NED NED 2:58.120.5 - 18.15 - (18.1)
1.0 - 31.96 - (13.8)
1.5 - 45.77 - (13.8)
2.0 - 59.67 - (13.8)
2.5 - 1:13.82 - (14.1)
3.0 - 1:28.26 - (14.4)
3.5 - 1:42.70 - (14.4)
4.0 - 1:57.44 - (14.7)
4.5 - 2:11.99 - (14.5)
5.0 - 2:27.04 - (15.0)
5.5 - 2:42.21 - (15.1)
6.0 - 2:58.12 - (15.9)
2 7 Japan (239) Misaki Oshigiri (240) Miho Takagi (241) Nana Takagi JPN JPN 2:58.310.5 - 18.24 - (18.2)
1.0 - 32.34 - (14.1)
1.5 - 46.50 - (14.1)
2.0 - 1:00.63 - (14.1)
2.5 - 1:14.05 - (13.4)
3.0 - 1:29.00 - (14.9)
3.5 - 1:43.70 - (14.7)
4.0 - 1:59.02 - (15.3)
4.5 - 2:13.45 - (14.4)
5.0 - 2:27.85 - (14.4)
5.5 - 2:43.16 - (15.3)
6.0 - 2:58.31 - (15.1)
0.19
3 6 Russia (269) Olga Graf (271) Elizaveta Kazelina (274) Natalya Voronina (273) Yekaterina Shikhova RUS RUS 3:02.610.5 - 19.03 - (19.0)
1.0 - 33.24 - (14.2)
1.5 - 47.53 - (14.2)
2.0 - 1:01.77 - (14.2)
2.5 - 1:16.02 - (14.2)
3.0 - 1:30.46 - (14.4)
3.5 - 1:45.35 - (14.8)
4.0 - 2:00.44 - (15.0)
4.5 - 2:15.96 - (15.5)
5.0 - 2:31.43 - (15.4)
5.5 - 2:46.77 - (15.3)
6.0 - 3:02.61 - (15.8)
4.49
4 9 Germany (229) Roxanne Dufter (230) Gabriele Hirschbichler (232) Claudia Pechstein (231) Bente Kraus GER GER 3:02.940.5 - 18.92 - (18.9)
1.0 - . d - (14.4)
1.5 - 47.76 - (14.4)
2.0 - 1:02.34 - (14.5)
2.5 - 1:16.97 - (14.6)
3.0 - 1:31.78 - (14.8)
3.5 - 1:46.79 - (15.0)
4.0 - 2:01.49 - (14.6)
4.5 - 2:16.74 - (15.2)
5.0 - 2:32.03 - (15.2)
5.5 - 2:47.41 - (15.3)
6.0 - 3:02.94 - (15.5)
4.82
5 8 Poland (263) Natalia Czerwonka (265) Katarzyna Wozniak (266) Luiza Zlotkowska (264) Aleksandra Goss POL POL 3:03.770.5 - 19.00 - (19.0)
1.0 - 33.32 - (14.3)
1.5 - 47.41 - (14.0)
2.0 - 1:01.64 - (14.2)
2.5 - . d - (14.4)
3.0 - 1:30.71 - (14.6)
3.5 - 1:45.80 - (15.0)
4.0 - 2:00.80 - (15.0)
4.5 - 2:16.12 - (15.3)
5.0 - 2:31.59 - (15.4)
5.5 - 2:47.42 - (15.8)
6.0 - 3:03.77 - (16.3)
5.65
6 5 Canada (206) Ivanie Blondin (212) Josie Spence (213) Brianne Tutt (214) Isabelle Weidemann CAN CAN 3:04.940.5 - 19.08 - (19.0)
1.0 - 33.24 - (14.1)
1.5 - 47.54 - (14.2)
2.0 - 1:01.90 - (14.3)
2.5 - 1:16.64 - (14.7)
3.0 - 1:31.53 - (14.8)
3.5 - 1:46.70 - (15.1)
4.0 - 2:01.84 - (15.1)
4.5 - 2:17.48 - (15.6)
5.0 - 2:33.17 - (15.6)
5.5 - 2:49.03 - (15.8)
6.0 - 3:04.94 - (15.8)
6.82
7 2 Czech Republic (223) Natalie Kerschbaummayr (224) Martina Sábliková (225) Nikola Zdráhalová (221) Eliska Drimalova CZE CZE 3:05.440.5 - 19.65 - (19.6)
1.0 - 34.60 - (14.9)
1.5 - 49.24 - (14.6)
2.0 - 1:03.99 - (14.7)
2.5 - 1:18.85 - (14.8)
3.0 - 1:33.75 - (14.9)
3.5 - 1:48.68 - (14.9)
4.0 - 2:03.76 - (15.0)
4.5 - 2:19.00 - (15.2)
5.0 - 2:34.48 - (15.4)
5.5 - 2:49.98 - (15.5)
6.0 - 3:05.44 - (15.4)
7.32
8 3 China (215) Jiachen Hao (217) Jing Liu (220) Xin Zhao CHN CHN 3:05.690.5 - 19.44 - (19.4)
1.0 - 34.26 - (14.8)
1.5 - 48.88 - (14.6)
2.0 - 1:03.92 - (15.0)
2.5 - 1:18.78 - (14.8)
3.0 - 1:33.70 - (14.9)
3.5 - 1:48.55 - (14.8)
4.0 - 2:04.00 - (15.4)
4.5 - 2:19.54 - (15.5)
5.0 - 2:35.24 - (15.7)
5.5 - 2:50.50 - (15.2)
6.0 - 3:05.69 - (15.1)
7.57